CST,Max TemperatureF,Mean TemperatureF,Min TemperatureF,Max Dew PointF,MeanDew PointF,Min DewpointF,Max Humidity, Mean Humidity, Min Humidity, Max Sea Level PressureIn, Mean Sea Level PressureIn, Min Sea Level PressureIn, Max VisibilityMiles, Mean VisibilityMiles, Min VisibilityMiles, Max Wind SpeedMPH, Mean Wind SpeedMPH, Max Gust SpeedMPH,PrecipitationIn, CloudCover, Events, WindDirDegrees
2013-12-1,70,57,44,52,45,36,80,60,40,30.26,30.14,29.99,10,10,10,10,4,14,0.00,6,,195
2013-12-2,73,65,56,62,57,50,100,81,61,29.96,29.81,29.71,10,9,5,18,6,21,0.00,5,,181
2013-12-3,77,67,56,66,62,55,100,82,64,29.74,29.70,29.64,10,8,1,20,10,25,0.00,4,,190
2013-12-4,80,74,67,69,67,66,100,84,67,29.86,29.79,29.73,10,8,3,20,9,26,0.00,7,,176
2013-12-5,82,64,45,71,63,44,100,85,69,30.02,29.91,29.85,10,7,4,18,9,23,0.06,8,Rain,211
2013-12-6,45,41,36,43,38,32,100,93,85,30.35,30.16,30.00,10,7,2,17,10,23,0.27,8,Rain,355
2013-12-7,36,34,31,31,29,27,89,82,75,30.43,30.36,30.30,10,10,7,17,9,23,0.00,8,,18
2013-12-8,43,37,31,40,36,29,93,85,76,30.28,30.15,30.08,10,8,3,8,3,12,0.01,8,Rain,7
2013-12-9,42,39,36,40,38,35,100,95,89,30.27,30.17,30.12,10,7,2,13,7,17,0.22,8,Rain,7
2013-12-10,48,41,33,34,31,28,100,75,50,30.45,30.38,30.28,10,10,10,21,9,26,0.00,4,,6
2013-12-11,52,40,28,35,32,27,92,71,50,30.52,30.42,30.38,10,10,8,13,3,15,0.00,2,,358
2013-12-12,55,43,31,31,25,17,92,58,24,30.59,30.50,30.39,10,10,10,13,5,17,0.00,0,,31
2013-12-13,58,46,34,57,41,26,100,76,52,30.38,30.08,29.86,10,8,2,15,7,22,0.36,5,Rain,133
2013-12-14,61,52,43,60,50,37,100,90,80,30.22,29.95,29.83,10,8,0,20,9,25,0.10,8,Fog-Rain,301
2013-12-15,51,41,31,35,33,30,92,71,50,30.35,30.29,30.22,10,9,7,16,6,21,0.00,3,,326
2013-12-16,62,45,28,41,33,27,100,66,32,30.36,30.30,30.24,10,8,2,8,1,10,0.00,0,,172
2013-12-17,68,49,30,46,37,30,100,67,34,30.35,30.30,30.25,10,8,1,8,1,12,0.00,0,,217
2013-12-18,69,52,34,47,40,33,100,70,39,30.36,30.27,30.19,10,9,7,13,3,15,0.00,0,,171
2013-12-19,74,58,42,60,52,38,96,75,53,30.17,30.06,29.96,10,9,6,20,9,28,0.00,5,,146
2013-12-20,77,71,64,68,66,61,100,87,74,29.98,29.91,29.85,10,10,9,18,9,25,0.00,8,,165
2013-12-21,75,66,56,72,64,56,100,91,82,29.85,29.70,29.56,10,6,0,28,12,38,1.53,8,Fog-Rain-Thunderstorm,183
2013-12-22,61,50,39,57,52,33,100,88,76,30.31,29.96,29.82,10,5,0,18,7,24,0.05,8,Fog-Rain,315
2013-12-23,49,40,30,32,30,28,82,64,46,30.54,30.44,30.31,10,10,10,16,8,22,0.00,4,,1
2013-12-24,52,40,27,32,29,26,92,67,41,30.59,30.50,30.38,10,10,8,9,3,15,0.00,0,,66
2013-12-25,52,39,26,35,31,26,100,73,46,30.43,30.38,30.33,10,10,9,9,2,12,0.00,1,,132
2013-12-26,60,46,32,37,35,31,100,70,40,30.43,30.38,30.31,10,10,8,9,3,13,0.00,1,,43
2013-12-27,55,46,36,36,34,29,85,62,38,30.48,30.39,30.34,10,10,10,13,2,16,0.00,1,,8
2013-12-28,52,46,39,42,38,34,92,77,61,30.31,30.16,30.03,10,10,10,7,1,9,T,4,Rain,332
2013-12-29,60,46,32,43,37,31,100,70,40,30.15,30.08,30.03,10,8,2,7,0,9,0.00,2,,210
2013-12-30,49,46,42,43,39,36,92,82,71,30.39,30.25,30.13,10,10,9,10,6,14,0.00,6,,322
2013-12-31,47,43,38,36,33,31,85,69,53,30.46,30.39,30.32,10,10,9,10,4,13,0.00,1,,53